• In Hungary
  • List of Countries
  • For 7 days
  • Water Temperature
  • Satellite Maps
  • Weather Map
  • News
  • Weather Widgets
  • user-avatar
    Login

    Hourly Weather Shashkovo

    Today, 20 June, Wednesday

    Time Temperature Precipitation Wind Pressure Humidity
    00:00 +14°C° 0 mm 4 mps 735 mmHg 89%
    01:00 +13°C° 0 mm 4 mps 736 mmHg 90%
    02:00 +11°C° 0 mm 3 mps 735 mmHg 93%
    03:00 +11°C° 0 mm 3 mps 736 mmHg 91%
    04:00 +12°C° 0 mm 4 mps 736 mmHg 89%
    05:00 +12°C° 0 mm 4 mps 736 mmHg 87%
    06:00 +13°C° 0 mm 4 mps 736 mmHg 77%
    07:00 +15°C° 0 mm 5 mps 736 mmHg 68%
    08:00 +16°C° 0 mm 5 mps 736 mmHg 58%
    09:00 +17°C° 0 mm 5 mps 736 mmHg 52%
    10:00 +19°C° 0 mm 6 mps 736 mmHg 46%
    11:00 +20°C° 0 mm 6 mps 736 mmHg 40%
    12:00 +21°C° 0 mm 6 mps 736 mmHg 40%
    13:00 +21°C° 0 mm 6 mps 736 mmHg 40%
    14:00 +21°C° 0 mm 6 mps 736 mmHg 40%
    15:00 +20°C° 0 mm 5 mps 736 mmHg 43%
    16:00 +20°C° 0 mm 5 mps 736 mmHg 47%
    17:00 +19°C° 0 mm 4 mps 736 mmHg 51%
    18:00 +18°C° 0 mm 4 mps 736 mmHg 56%
    19:00 +17°C° 0 mm 3 mps 737 mmHg 61%
    20:00 +16°C° 0 mm 2 mps 737 mmHg 67%
    21:00 +14°C° 0 mm 3 mps 737 mmHg 69%
    22:00 +13°C° 0 mm 3 mps 737 mmHg 71%
    23:00 +12°C° 0 mm 3 mps 737 mmHg 73%

    Tomorrow, 21 June, Thursday

    Time Temperature Precipitation Wind Pressure Humidity
    00:00 +11°C° 0 mm 3 mps 737 mmHg 72%
    01:00 +11°C° 0 mm 3 mps 738 mmHg 71%
    02:00 +10°C° 0 mm 3 mps 738 mmHg 71%
    03:00 +10°C° 0 mm 3 mps 738 mmHg 70%
    04:00 +11°C° 0 mm 3 mps 738 mmHg 69%
    05:00 +11°C° 0 mm 3 mps 738 mmHg 68%
    06:00 +12°C° 0 mm 3 mps 738 mmHg 68%
    07:00 +13°C° 0 mm 3 mps 737 mmHg 67%
    08:00 +14°C° 0 mm 3 mps 737 mmHg 67%
    09:00 +16°C° 0.1 mm 3 mps 737 mmHg 69%
    10:00 +17°C° 0.1 mm 4 mps 737 mmHg 70%
    11:00 +19°C° 0.1 mm 4 mps 737 mmHg 72%
    12:00 +20°C° 0.1 mm 4 mps 737 mmHg 71%
    13:00 +20°C° 0.1 mm 4 mps 736 mmHg 71%
    14:00 +21°C° 0.1 mm 4 mps 736 mmHg 70%
    15:00 +22°C° 0.3 mm 3 mps 736 mmHg 70%
    16:00 +22°C° 0.3 mm 3 mps 736 mmHg 69%
    17:00 +24°C° 0.3 mm 3 mps 736 mmHg 69%
    18:00 +21°C° 0.1 mm 3 mps 735 mmHg 75%
    19:00 +20°C° 0.1 mm 2 mps 735 mmHg 80%
    20:00 +19°C° 0.1 mm 2 mps 735 mmHg 86%
    21:00 +18°C° 0 mm 2 mps 735 mmHg 87%
    22:00 +17°C° 0 mm 2 mps 735 mmHg 89%
    23:00 +16°C° 0 mm 3 mps 735 mmHg 91%

    Day after tomorrow, 22 June, Friday

    Time Temperature Precipitation Wind Pressure Humidity
    00:00 +16°C° 0 mm 3 mps 735 mmHg 92%
    01:00 +16°C° 0 mm 3 mps 734 mmHg 92%
    02:00 +16°C° 0 mm 3 mps 734 mmHg 92%
    03:00 +16°C° 0 mm 3 mps 734 mmHg 90%
    04:00 +17°C° 0 mm 4 mps 733 mmHg 87%
    05:00 +18°C° 0 mm 4 mps 733 mmHg 85%
    06:00 +19°C° 0 mm 5 mps 732 mmHg 79%
    07:00 +21°C° 0 mm 5 mps 732 mmHg 74%
    08:00 +22°C° 0 mm 6 mps 732 mmHg 68%
    09:00 +23°C° 0.3 mm 6 mps 731 mmHg 72%
    10:00 +23°C° 0.3 mm 6 mps 731 mmHg 75%
    11:00 +23°C° 0.3 mm 6 mps 731 mmHg 79%
    12:00 +22°C° 1 mm 6 mps 731 mmHg 83%
    13:00 +22°C° 1 mm 6 mps 731 mmHg 87%
    14:00 +21°C° 1 mm 5 mps 732 mmHg 91%
    15:00 +19°C° 0.4 mm 4 mps 732 mmHg 92%
    16:00 +17°C° 0.4 mm 3 mps 732 mmHg 93%
    17:00 +15°C° 0.4 mm 2 mps 732 mmHg 93%
    18:00 +14°C° 0 mm 2 mps 733 mmHg 94%
    19:00 +14°C° 0 mm 2 mps 733 mmHg 94%
    20:00 +13°C° 0 mm 2 mps 734 mmHg 94%
    21:00 +13°C° 0 mm 2 mps 734 mmHg 94%
    22:00 +13°C° 0 mm 2 mps 734 mmHg 94%
    23:00 +13°C° 0 mm 2 mps 735 mmHg 95%

    23 June, Saturday

    Time Temperature Precipitation Wind Pressure Humidity
    00:00 +12°C° 0 mm 2 mps 735 mmHg 95%
    01:00 +12°C° 0 mm 2 mps 735 mmHg 95%
    02:00 +12°C° 0 mm 2 mps 735 mmHg 95%
    03:00 +12°C° 0 mm 2 mps 735 mmHg 94%
    04:00 +12°C° 0 mm 2 mps 735 mmHg 94%
    05:00 +12°C° 0 mm 2 mps 735 mmHg 94%
    06:00 +13°C° 0.3 mm 2 mps 736 mmHg 93%
    07:00 +13°C° 0.3 mm 2 mps 736 mmHg 92%
    08:00 +13°C° 0.3 mm 2 mps 736 mmHg 91%
    09:00 +13°C° 0.2 mm 2 mps 736 mmHg 88%
    10:00 +14°C° 0.2 mm 2 mps 736 mmHg 86%
    11:00 +14°C° 0.2 mm 2 mps 737 mmHg 83%
    12:00 +14°C° 0.5 mm 2 mps 737 mmHg 83%
    13:00 +14°C° 0.5 mm 2 mps 737 mmHg 83%
    14:00 +14°C° 0.5 mm 2 mps 737 mmHg 84%
    15:00 +14°C° 0.5 mm 2 mps 736 mmHg 86%
    16:00 +14°C° 0.5 mm 1 mps 736 mmHg 88%
    17:00 +13°C° 0.5 mm 1 mps 736 mmHg 91%
    18:00 +13°C° 0.7 mm 1 mps 736 mmHg 93%
    19:00 +12°C° 0.7 mm 1 mps 736 mmHg 95%
    20:00 +12°C° 0.7 mm 1 mps 736 mmHg 96%
    21:00 +11°C° 0.3 mm 1 mps 736 mmHg 97%
    22:00 +11°C° 0.3 mm 1 mps 736 mmHg 97%
    23:00 +11°C° 0.3 mm 1 mps 736 mmHg 97%

    24 June, Sunday

    Time Temperature Precipitation Wind Pressure Humidity
    00:00 +11°C° 0.5 mm 1 mps 736 mmHg 97%
    01:00 +11°C° 0.5 mm 1 mps 735 mmHg 97%
    02:00 +11°C° 0.5 mm 1 mps 735 mmHg 97%
    03:00 +11°C° 0.2 mm 1 mps 735 mmHg 96%
    04:00 +11°C° 0.2 mm 1 mps 736 mmHg 95%
    05:00 +12°C° 0.2 mm 1 mps 736 mmHg 95%
    06:00 +13°C° 0.2 mm 2 mps 736 mmHg 90%
    07:00 +14°C° 0.2 mm 2 mps 736 mmHg 86%
    08:00 +16°C° 0.2 mm 2 mps 736 mmHg 81%
    09:00 +17°C° 0.1 mm 2 mps 736 mmHg 72%
    10:00 +18°C° 0.1 mm 3 mps 737 mmHg 62%
    11:00 +20°C° 0.1 mm 3 mps 737 mmHg 53%
    12:00 +20°C° 0.5 mm 3 mps 737 mmHg 55%
    13:00 +20°C° 0.5 mm 2 mps 737 mmHg 58%
    14:00 +19°C° 0.5 mm 2 mps 737 mmHg 60%
    15:00 +19°C° 0.3 mm 2 mps 738 mmHg 63%
    16:00 +19°C° 0.3 mm 2 mps 738 mmHg 65%
    17:00 +19°C° 0.3 mm 2 mps 738 mmHg 68%
    18:00 +17°C° 0.1 mm 2 mps 738 mmHg 75%
    19:00 +16°C° 0.1 mm 2 mps 738 mmHg 82%
    20:00 +14°C° 0.1 mm 1 mps 739 mmHg 89%
    21:00 +13°C° 0 mm 1 mps 739 mmHg 91%
    22:00 +13°C° 0 mm 1 mps 739 mmHg 93%
    23:00 +12°C° 0 mm 1 mps 739 mmHg 96%

    25 June, Monday

    Time Temperature Precipitation Wind Pressure Humidity
    00:00 +11°C° 0 mm 1 mps 739 mmHg 96%
    01:00 +11°C° 0 mm 1 mps 740 mmHg 97%
    02:00 +10°C° 0 mm 1 mps 740 mmHg 97%
    03:00 +10°C° 0 mm 2 mps 740 mmHg 96%
    04:00 +10°C° 0 mm 2 mps 740 mmHg 95%
    05:00 +12°C° 0 mm 2 mps 740 mmHg 94%
    06:00 +13°C° 0 mm 2 mps 741 mmHg 87%
    07:00 +15°C° 0 mm 2 mps 741 mmHg 80%
    08:00 +17°C° 0 mm 2 mps 741 mmHg 73%
    09:00 +18°C° 0.5 mm 3 mps 741 mmHg 72%
    10:00 +18°C° 0.5 mm 3 mps 741 mmHg 70%
    11:00 +19°C° 0.5 mm 3 mps 741 mmHg 69%
    12:00 +20°C° 0.5 mm 3 mps 741 mmHg 67%
    13:00 +20°C° 0.5 mm 3 mps 741 mmHg 65%
    14:00 +20°C° 0.5 mm 3 mps 741 mmHg 63%
    15:00 +20°C° 0.3 mm 3 mps 741 mmHg 66%
    16:00 +20°C° 0.3 mm 3 mps 741 mmHg 68%
    17:00 +19°C° 0.3 mm 2 mps 741 mmHg 70%
    18:00 +18°C° 0.2 mm 2 mps 741 mmHg 77%
    19:00 +16°C° 0.2 mm 2 mps 741 mmHg 84%
    20:00 +15°C° 0.2 mm 1 mps 741 mmHg 91%
    21:00 +14°C° 0 mm 1 mps 741 mmHg 93%
    22:00 +13°C° 0 mm 2 mps 742 mmHg 94%
    23:00 +12°C° 0 mm 2 mps 742 mmHg 95%
    Show more